NOAA 16 DEB, 41208

Orbit data source: Space-Track

NOAA 16 DEB, 41208 is space debris in SSO originally from a launch on Thu, 21 Sep 2000 UTC launched from the Air Force Western Test Range (AFWTR). Debris objects in space refer to the collection of defunct objects orbiting the Earth. Examples of debris include non-operational satellites, rocket bodies, and fragments generated from explosions, collisions, or faulty payload assembly.

Loading next visibility...
Identifier
41208, 2000-055DM
Orbit
SSO
Country
Flag of USUS
Related business
Manufacturer
Unknown
Mission
Spacecraft
Bus & Motor
Unknown
Mass
Unknown
Launch date (UTC)
2000-09-21 (26 years ago)
Launch vehicle
Unknown
Launch site
Air Force Western Test Range (AFWTR)
Object type
Payload
Rocket body
Debris
Shape & HBR
Unknown shape, 0.1 m
Radar Cross Section
Small (<0.1 m²)

Expand to show TLE details & history
Last TLE update: 3 days ago

TLE from 3 days ago
0 NOAA 16 DEB
1 41208U 00055DM  26105.25801853  .00001847  00000-0  91246-3 0  9996
2 41208  98.6632 118.9468 0033323  71.6047 288.8748 14.18314845530638
Epoch: 2026-04-15T06:11Z
TLE epoch observation values (Epoch: 2026-04-15T06:11:32.800Z)
Latitude
-0°
Longitude
-177.36237°
Altitude
826.27 km
Speed
7.444 km/s
True Right ascension
07h 55m 47s
True Declination
0° 00' 00"
Sunlit
Object was in daylight at epoch
Visualization orbit readout
Latitude
Unknown
Longitude
Unknown
Altitude
Unknown
Speed
Unknown
Apparent Right ascension
Unknown
Apparent Declination
Unknown
Sunlit
N/A
Visualization observer readout
Local Sidereal Time
02:23:09
Azimuth
Unknown
Elevation
Unknown
Doppler factor
Unknown
Orbital elements
Apogee altitude
852.23 km
Perigee altitude
804.202 km
Semi-major axis
7,206.353 km
Eccentricity
0.00333
Inclination
98.6632°
RAAN
118.9468°
Arg. of periapsis
71.6047°
True anomaly
288.51299°
Mean anomaly
288.8748°
Eccentric anomaly
288.69395°
Mean motion
3.54789 °/min
Orbital period
101.47 mins
BSTAR
0.00091246
Loading maneuver chart data...
Computing Atmospheric mass density...
Loading historical data...
Loading historical data...
Loading historical data...
Loading historical data...
Loading historical data...
Loading historical data...
Loading historical data...

Documentation

Showing up to 5 results
|